Вернуться в каталог

KUIPER-00029

АктивенСвязьLEO
NORAD 63742·PAYLOAD·🇺🇸 United States

Запущен Apr 28, 2025 с Cape Canaveral Space Force Station

Loading…

Ближайшие Пролёты (ближайшие 24 часа)

TLE

СвежийSource: CelesTrak SupGP

Эпоха: Sep 14, 2026, 22:38 UTC

1 63742C 25088U   26257.94311343  .00001627  00000+0  21297-3 0  2571
2 63742  51.9021 334.8653 0000064  41.8729 233.5107 14.79927214    13

Отслеживайте KUIPER-00029 в реальном времени с AllMySat

Download on the App Store